Sierra Vista, AZ

5:21 PM MST on June 21, 2018 (GMT -0700)
Sierra Vista Municipal-Libby Army Air Field

Weather History for KFHU - December, 2017

Change the Weather History Date:

Thursday, December 7, 2017

  Actual Average Record
Temperature  
Mean Temperature 39 °F -  
Max Temperature 48 °F 58 °F 72 °F (1983)
Min Temperature 30 °F 37 °F 23 °F (1998)
Degree Days  
Heating Degree Days 26    
Moisture  
Dew Point 15 °F    
Average Humidity 40    
Maximum Humidity 78    
Minimum Humidity 17    
Precipitation  
Precipitation 0.00 in - - ()
Sea Level Pressure  
Sea Level Pressure 30.22 in    
Wind  
Wind Speed 8 mph (ENE)    
Max Wind Speed 21 mph    
Max Gust Speed 28 mph    
Visibility 10 miles    
Events      
Averages and records for this station are not official NWS values.
T = Trace of Precipitation, MM = Missing Value Source: NWS Daily Summary

Daily Weather History Graph

Daily Weather History Graph

Search for Another Location

Airport or City:

Astronomy

Dec. 07, 2017 Rise Set
Actual Time 7:08 AM MST 5:17 PM MST
Civil Twilight 6:41 AM MST 5:44 PM MST
Nautical Twilight 6:11 AM MST 6:14 PM MST
Astronomical Twilight 5:41 AM MST 6:44 PM MST
Moon 10:01 PM MST (12/7) 10:55 AM MST (12/7)
Length of Visible Light 11h 03m
Length of Day
10h 09m
Waning Gibbous, 77% of the Moon is Illuminated
Dec 7
Waning Gibbous
Dec 10
Last Quarter
Dec 17
New
Dec 26
First Quarter
Jan 1
Full

Hourly Weather History & Observations

Time (MST) Temp. Windchill Dew Point Humidity Pressure Visibility Wind Dir Wind Speed Gust Speed Precip Events Conditions
12:58 AM 41.2 °F 38.2 °F 33.4 °F 74% 30.09 in 10.0 mi SW 4.6 mph - N/A   Clear
1:58 AM 41.0 °F - 34.5 °F 78% 30.09 in 10.0 mi Calm Calm - N/A   Clear
2:58 AM 41.5 °F 37.1 °F 32.4 °F 70% 30.09 in 10.0 mi North 6.9 mph - N/A   Clear
3:58 AM 41.0 °F 38.0 °F 19.0 °F 41% 30.10 in 10.0 mi North 4.6 mph - N/A   Overcast
4:25 AM 42.8 °F 41.1 °F 17.6 °F 36% 30.11 in 10.0 mi North 3.5 mph - N/A   Overcast
4:58 AM 43.2 °F 39.0 °F 18.0 °F 36% 30.12 in 10.0 mi North 6.9 mph - N/A   Overcast
5:58 AM 41.4 °F 37.6 °F 6.3 °F 24% 30.14 in 10.0 mi NNE 5.8 mph - N/A   Overcast
6:52 AM 39.2 °F 34.2 °F 5.0 °F 24% 30.17 in 10.0 mi North 6.9 mph - N/A   Mostly Cloudy
6:58 AM 38.8 °F 33.8 °F 5.2 °F 25% 30.16 in 10.0 mi North 6.9 mph - N/A   Scattered Clouds
7:23 AM 37.4 °F 29.3 °F 1.4 °F 22% 30.19 in 9.0 mi North 12.7 mph - N/A   Clear
7:58 AM 37.2 °F 29.6 °F -3.6 °F 18% 30.21 in 10.0 mi North 11.5 mph - N/A   Clear
8:45 AM 39.2 °F 32.0 °F -2.2 °F 17% 30.22 in 9.0 mi North 11.5 mph 24.2 mph N/A   Clear
8:58 AM 40.1 °F 31.3 °F -0.0 °F 19% 30.21 in 10.0 mi North 17.3 mph 23.0 mph N/A   Clear
9:58 AM 41.7 °F 32.6 °F 11.1 °F 29% 30.23 in 10.0 mi NNE 20.7 mph 27.6 mph N/A   Partly Cloudy
10:58 AM 45.3 °F 40.6 °F 24.1 °F 43% 30.20 in 10.0 mi NE 9.2 mph 19.6 mph N/A   Clear
11:58 AM 47.5 °F - 19.0 °F 32% 30.19 in 10.0 mi NE 18.4 mph 24.2 mph N/A   Clear
12:49 PM 48.2 °F - 14.0 °F 25% 30.18 in 10.0 mi NNE 15.0 mph 25.3 mph N/A   Clear
12:58 PM 48.4 °F - 14.4 °F 26% 30.18 in 10.0 mi ENE 15.0 mph 21.9 mph N/A   Clear
1:58 PM 48.0 °F - 9.7 °F 21% 30.19 in 10.0 mi NE 18.4 mph 26.5 mph N/A   Clear
2:58 PM 46.9 °F - 12.9 °F 25% 30.19 in 10.0 mi ENE 17.3 mph - N/A   Clear
3:58 PM 45.3 °F 38.1 °F 10.9 °F 25% 30.21 in 10.0 mi ENE 17.3 mph 23.0 mph N/A   Clear
4:58 PM 42.1 °F 36.6 °F 15.1 °F 34% 30.22 in 9.0 mi East 9.2 mph - N/A   Clear
5:28 PM 39.2 °F 34.2 °F 15.8 °F 39% 30.25 in 10.0 mi East 6.9 mph - N/A   Clear
5:58 PM 37.6 °F 31.6 °F 14.9 °F 40% 30.25 in 10.0 mi ESE 8.1 mph - N/A   Clear
6:19 PM 37.4 °F 30.8 °F 15.8 °F 41% 30.27 in 10.0 mi ESE 9.2 mph - N/A   Clear
6:58 PM 36.0 °F 31.1 °F 16.3 °F 45% 30.30 in 10.0 mi ESE 5.8 mph - N/A   Clear
7:14 PM 35.6 °F 29.2 °F 15.8 °F 44% 30.32 in 10.0 mi East 8.1 mph - N/A   Clear
7:58 PM 34.0 °F 26.0 °F 18.5 °F 53% 30.34 in 10.0 mi ESE 10.4 mph - N/A   Clear
8:42 PM 32.0 °F 25.6 °F 17.6 °F 55% 30.36 in 10.0 mi SSE 6.9 mph - N/A   Clear
8:58 PM 31.1 °F 24.5 °F 18.0 °F 58% 30.35 in 10.0 mi SSE 6.9 mph - N/A   Clear
9:58 PM 30.4 °F 21.5 °F 19.0 °F 63% 30.36 in 10.0 mi SSE 10.4 mph - N/A   Clear
10:58 PM 30.2 °F 20.2 °F 19.4 °F 64% 30.35 in 10.0 mi SSE 12.7 mph - N/A   Clear
11:58 PM 30.4 °F 20.0 °F 19.6 °F 64% 30.34 in 10.0 mi SSE 13.8 mph - N/A   Clear